Tracking 30918 objects as of 3-Jul-2025
HD Live streaming from Space Station
objects crossing your sky now

CZ-4C R/B

Track CZ-4C R/B now!
10-day predictions


NORAD ID: 54701
Int'l Code: 2022-169C
Perigee: 661.4 km
Apogee: 795.5 km
Inclination: 60.0 °
Period: 99.2 minutes
Semi major axis: 7099 km
RCS: Unknown
Launch date: December 12, 2022
Source: People's Republic of China (PRC)
Launch site: Jiuquan Satellite Launch Center, China (JSC)

Note: This is a ROCKET BODY
Your satellite tracking list
Your tracking list is empty




NASA's NSSDC Master Catalog

Two Line Element Set (TLE):
1 54701U 22169C   25183.42854780  .00000042  00000-0  48482-4 0  9990
2 54701  59.9536 203.5447 0094430 118.8796 242.1765 14.51318851135341
Source of the keplerian elements: AFSPC